This is the latest recevied weather packets stored in our database for station/object WS4FSC-7. If no packets are shown the sender has not sent any weather packets the latest 10 day(s).
| Time | Temp. | Humidity | Pressure | Rain* | Wind** | Luminosity | Snow |
|---|---|---|---|---|---|---|---|
| 1788137452 | 25.56° C | 92% | 1015 hPa | - | - | 0 W/m² | - |
| 1788137271 | 25.56° C | 92% | 1015 hPa | - | - | 0 W/m² | - |
| 1788136551 | 25° C | 94% | 1015 hPa | - | - | 0 W/m² | - |
| 1788136372 | 25° C | 94% | 1015 hPa | - | - | 0 W/m² | - |
| 1788136191 | 25° C | 94% | 1015 hPa | - | - | 0 W/m² | - |
| 1788136011 | 25° C | 94% | 1015 hPa | - | - | 0 W/m² | - |
| 1788135831 | 25° C | 95% | 1015 hPa | - | - | 0 W/m² | - |
| 1788135651 | 25° C | 95% | 1015 hPa | - | - | 0 W/m² | - |
| 1788135110 | 25° C | 94% | 1015 hPa | - | - | 0 W/m² | - |
| 1788134751 | 24.44° C | 95% | 1015 hPa | - | - | 0 W/m² | - |
| 1788134584 | 24.44° C | 95% | 1015 hPa | - | - | 0 W/m² | - |
| 1788134210 | 24.44° C | 95% | 1015 hPa | - | - | 0 W/m² | - |
| 1788133861 | 24.44° C | 95% | 1015 hPa | - | - | 0 W/m² | - |
| 1788133491 | 24.44° C | 95% | 1015 hPa | - | - | 0 W/m² | - |
| 1788133445 | 24.44° C | 95% | 1015 hPa | - | - | 0 W/m² | - |
| 1788133445 | 24.44° C | 94% | 1015 hPa | - | - | 0 W/m² | - |
| 1788133311 | 24.44° C | 95% | 1015 hPa | - | - | 0 W/m² | - |
| 1788133131 | 24.44° C | 94% | 1015 hPa | - | - | 0 W/m² | - |
| 1788132592 | 24.44° C | 91% | 1016 hPa | - | - | 0 W/m² | - |
| 1788132051 | 26.11° C | 92% | 1016 hPa | - | - | 1 W/m² | - |
| 1788131871 | 26.11° C | 91% | 1016 hPa | - | - | 1 W/m² | - |
| 1788131511 | 26.67° C | 87% | 1016 hPa | - | - | 1 W/m² | - |
| 1788130792 | 28.33° C | 80% | 1015 hPa | - | - | 2 W/m² | - |
| 1788130431 | 29.44° C | 79% | 1015 hPa | - | - | 9 W/m² | - |
| 1788130251 | 29.44° C | 79% | 1015 hPa | - | - | 18 W/m² | - |
* Rain since midnight (hover to see other rain measurements)
** Current wind speed in m/s (hover to see current wind gust speed)